This is the latest recevied weather packets stored in our database for station/object VU3ZAG-WX. If no packets are shown the sender has not sent any weather packets the latest 10 day(s).
| Time | Temp. | Humidity | Pressure | Rain* | Wind** | Luminosity | Snow |
|---|---|---|---|---|---|---|---|
| 1777581659 | 31.11° C | 63% | 1009.7 hPa | - | - | - | - |
| 1777581053 | 31.11° C | 62% | 1009.8 hPa | - | - | - | - |
| 1777580447 | 31.11° C | 58% | 1009.9 hPa | - | - | - | - |
| 1777579841 | 31.11° C | 59% | 1010.1 hPa | - | - | - | - |
| 1777579235 | 30.56° C | 59% | 1010.2 hPa | - | - | - | - |
| 1777578629 | 30° C | 63% | 1010.4 hPa | - | - | - | - |
| 1777578023 | 30° C | 64% | 1010.5 hPa | - | - | - | - |
| 1777577418 | 30° C | 64% | 1010.7 hPa | - | - | - | - |
| 1777576812 | 30.56° C | 63% | 1010.9 hPa | - | - | - | - |
| 1777576207 | 30.56° C | 60% | 1011.1 hPa | - | - | - | - |
| 1777575601 | 30.56° C | 58% | 1011.2 hPa | - | - | - | - |
| 1777574995 | 30° C | 59% | 1011.4 hPa | - | - | - | - |
| 1777574390 | 30° C | 59% | 1011.5 hPa | - | - | - | - |
| 1777573784 | 29.44° C | 63% | 1011.7 hPa | - | - | - | - |
| 1777573179 | 29.44° C | 63% | 1011.7 hPa | - | - | - | - |
| 1777572574 | 29.44° C | 63% | 1011.7 hPa | - | - | - | - |
| 1777571969 | 29.44° C | 63% | 1011.7 hPa | - | - | - | - |
| 1777571363 | 29.44° C | 68% | 1011.7 hPa | - | - | - | - |
| 1777570758 | 29.44° C | 68% | 1011.7 hPa | - | - | - | - |
| 1777570152 | 29.44° C | 68% | 1011.7 hPa | - | - | - | - |
| 1777569547 | 30° C | 67% | 1011.6 hPa | - | - | - | - |
| 1777568942 | 30° C | 66% | 1011.5 hPa | - | - | - | - |
| 1777568337 | 30° C | 66% | 1011.4 hPa | - | - | - | - |
| 1777567731 | 30.56° C | 64% | 1011.3 hPa | - | - | - | - |
| 1777567125 | 30.56° C | 62% | 1011.1 hPa | - | - | - | - |
* Rain since midnight (hover to see other rain measurements)
** Current wind speed in m/s (hover to see current wind gust speed)